Powrót do katalogu

STARLINK-2608

AktywnyŁącznośćVLEO
NORAD 48365·PAYLOAD·🇺🇸 United States

Wystrzelony May 4, 2021 z Cape Canaveral Space Force Station

Loading…

Następne Przeloty (najbliższe 24 godziny)

TLE

ŚwieżeSource: CelesTrak SupGP

Epoka: Sep 14, 2026, 21:35 UTC

1 48365C 21038N   26257.89979167 -.00015626  00000+0 -50250-3 0  2571
2 48365  53.1579 187.3138 0001329  93.5134 328.4345 15.31709405    14

Śledź STARLINK-2608 w czasie rzeczywistym z AllMySat

Download on the App Store